Regional Weather Roundup
Issued by NWS

Home | Current Version | Previous Version | Graphics & Text | Print | Product List | Glossary On
Versions: 1 2 3 4 5 6 7 8 9 10 11 12 13 14 15 16 17 18 19 20 21 22 23 24 25 26 27 28 29 30 31 32 33 34 35 36 37 38 39 40 41 42 43 44 45 46 47 48 49 50
000
ASUS43 KMPX 231701
RWRMN
WEATHER ROUNDUP FOR MINNESOTA
NATIONAL WEATHER SERVICE TWIN CITIES/CHANHASSEN MN
1100 AM CST THU FEB 23 2017


NOTE: "FAIR" INDICATES FEW OR NO CLOUDS BELOW 12,000 FEET WITH NO
SIGNIFICANT WEATHER AND/OR OBSTRUCTIONS TO VISIBILITY. N/A MEANS
CURRENT SKY AND/OR WEATHER CONDITIONS ARE NOT AVAILABLE.

MNZ060>063-068>070-231800-
   Twin Cities Metro

CITY           SKY/WX    TMP DP  RH WIND       PRES   REMARKS
TWIN CITIES    PTSUNNY   35  24  64 N9G24     29.93S WCI  28
ST PAUL        PTSUNNY   35  26  69 NE8       29.95S WCI  29
CRYSTAL        MOSUNNY   36  22  56 NE12      29.93S
LAKEVILLE      CLOUDY    30  28  93 NE9       29.91F WCI  22
EDEN PRAIRIE   CLOUDY    36  25  64 NE10      29.91F
SOUTH ST PAUL  CLOUDY    36  26  67 NE7       29.92F
LAKE ELMO      PTSUNNY   34  28  80 N8        29.93S WCI  27
$$
MNZ001>005-007-008-013>017-022>024-027-028-231800-
   Northwest Minnesota

CITY           SKY/WX    TMP DP  RH WIND       PRES   REMARKS
BEMIDJI        PTSUNNY   25  17  72 N12G17    30.00S WCI  14
HALLOCK        CLOUDY    25  18  74 N18       30.07R WCI  11
ROSEAU         CLOUDY    23  16  74 N14       30.04F WCI  11
WARROAD        CLOUDY    23  14  68 NW10      30.05F WCI  12
THIEF RVR FALL   N/A    N/A N/A N/A MISG        N/A
CROOKSTON      CLOUDY    28  21  74 NE13      30.07S WCI  18
FOSSTON        CLOUDY    25  19  80 N15G23    30.03S WCI  12
DETROIT LAKES  CLOUDY    28  21  74 NE13      30.00S WCI  18
MOORHEAD       CLOUDY    28  21  74 N18G24    30.05R WCI  16
PARK RAPIDS    CLOUDY    25  16  68 N16       29.98R WCI  12
MAHNOMEN       CLOUDY    26  20  77 N20       30.01S WCI  12
$$
MNZ006-009>011-018-025>026-231800-
   North Central Minnesota

CITY           SKY/WX    TMP DP  RH WIND       PRES   REMARKS
BAUDETTE       FLURRIES  20  11  68 NW13      30.03S WCI   7
FLAG ISLAND    PTSUNNY   19  10  68 NW21      30.04S WCI   3
INTL FALLS     CLOUDY    23  11  60 W14G21    30.00S WCI  11
WASKISH        CLOUDY    25  16  68 NW8       30.03S WCI  16
BIG FORK       CLOUDY    25  16  68 NW6       29.99S WCI  18
LONGVILLE      CLOUDY    25  19  80 NW7       29.99R WCI  17
GRAND RAPIDS   CLOUDY    23  17  78 N14       29.99R WCI  11
CRANE LAKE     CLOUDY    25  12  58 N12       29.99S WCI  14
ORR            MOSUNNY   27  12  54 NW9       29.94R WCI  17
COOK           CLOUDY    25  18  74 NW10G16   29.95S WCI  15
WALKER         CLOUDY    25  18  74 N10       29.99R WCI  15
$$
MNZ012-019>021-037-231800-
   Northeast Minnesota

CITY           SKY/WX    TMP DP  RH WIND       PRES   REMARKS
DULUTH         CLOUDY    25  21  85 NW10      29.93R WCI  15
ELY            MOSUNNY   28  18  64 NW10G16   29.92R WCI  19
HIBBING        PTSUNNY   24  20  84 N17       29.94F WCI  11
EVELETH        CLOUDY    25  19  76 NW8       29.95R WCI  16
DULUTH HARBOR  CLOUDY    28  25  86 N8        29.99R WCI  20
TWO HARBORS    CLOUDY    30  23  74 NW5       29.92S WCI  25
SILVER BAY     MOSUNNY   30  21  69 N10       29.91R WCI  21
GRAND MARAIS     N/A     37  19  48 VRB3      29.91R
G MARAIS ARPRT SUNNY     28  12  50 NW8G20    29.85R WCI  20
$$
MNZ029>031-032-039>041-046>048-054>057-064-231800-
   West Central Minnesota

CITY           SKY/WX    TMP DP  RH WIND       PRES   REMARKS
FERGUS FALLS   MOSUNNY   28  21  74 N10       30.04R WCI  19
WHEATON        CLOUDY    28  21  74 N16       30.02S WCI  17
MORRIS         SUNNY     30  25  80 N14       29.96S WCI  20
ALEXANDRIA     CLOUDY    26  22  84 NE9       29.96R WCI  17
ELBOW LAKE     CLOUDY    28  22  79 E12       29.99R WCI  17
WADENA         CLOUDY    25  21  86 N10       29.97S WCI  15
GLENWOOD       PTSUNNY   27  25  93 N14       29.95F WCI  15
APPLETON       MOSUNNY   32  25  74 NE14      29.95F WCI  22
BENSON         PTSUNNY   34  23  64 NE10      29.97S WCI  26
ORTONVILLE       N/A     30  23  74 N20       29.98R WCI  18
MADISON        CLOUDY    34  27  75 N14       29.96S WCI  24
WILLMAR        FAIR      30  27  86 NE12      29.95S WCI  21
$$
MNZ033>034-036-042>043-049>051-058-059-231800-
   Central Minnesota

CITY           SKY/WX    TMP DP  RH WIND       PRES   REMARKS
ST CLOUD       CLOUDY    27  22  81 N9        29.96S WCI  18
SAUK CENTRE    CLOUDY    28  22  78 NE9       29.96S WCI  19
PAYNESVILLE    MOSUNNY   29  24  79 NE10      29.94F WCI  20
AITKIN         CLOUDY    28  21  74 N12       29.95F WCI  18
PINE RIVER     PTSUNNY   25  19  80 N13       30.01S WCI  13
BRAINERD       CLOUDY    25  20  81 N13       29.98S WCI  14
STAPLES        CLOUDY    25  19  80 N12       29.97S WCI  14
LONG PRAIRIE   CLOUDY    27  21  80 NW12      29.97R WCI  16
LITTLE FALLS   CLOUDY    27  21  80 N5        29.98S WCI  21
LITCHFIELD     CLOUDY    30  25  80 NE12      29.93F WCI  21
BUFFALO        CLOUDY    32  24  72 N9        29.95F WCI  24
MAPLE LAKE     CLOUDY    32  26  79 N10       29.95S WCI  24
HUTCHINSON     SUNNY     32  26  80 N14       29.92F WCI  22
$$
MNZ037-044-045-052-053-231800-
   East Central Minnesota

CITY           SKY/WX    TMP DP  RH WIND       PRES   REMARKS
PRINCETON      CLOUDY    28  25  86 N9        29.97F WCI  20
MORA           CLOUDY    27  23  86 N7        29.99R WCI  19
CAMBRIDGE      PTSUNNY   30  21  69 N8        29.94F WCI  23
RUSH CITY      CLOUDY    27  23  86 N8        29.97R WCI  18
MOOSE LAKE     CLOUDY    27  23  86 N6        29.94F WCI  20
HINCKLEY       CLOUDY    28  25  86 N8        29.97R WCI  20
CLOQUET        CLOUDY    25  21  86 NW12      29.95R WCI  14
MCGREGOR       CLOUDY    27  23  86 N10       29.97S WCI  17
$$
MNZ071>073-080-081-089-090-097-098-231800-
   Southwest Minnesota

CITY           SKY/WX    TMP DP  RH WIND       PRES   REMARKS
MONTEVIDEO     CLOUDY    30  27  86 E10       29.96S WCI  21
GRANITE FALLS  PTSUNNY   34  28  80 N10       29.94F WCI  26
CANBY          CLOUDY    32  27  81 N13       29.95S WCI  22
MARSHALL       CLOUDY    31  26  82 N13       29.93R WCI  21
REDWOOD FALLS  CLOUDY    33  24  69 N9        29.93S WCI  25
OLIVIA         CLOUDY    32  28  86 N13       29.92S WCI  22
PIPESTONE      CLOUDY    30  23  74 NE15      29.87S WCI  19
WINDOM         CLOUDY    32  27  80 NE14      29.88S WCI  22
WORTHINGTON    CLOUDY    31  26  82 NE17      29.86S WCI  19
JACKSON          N/A     32  28  86 NE15      29.86F WCI  22
TRACY          CLOUDY    32  28  83 N12       29.92S WCI  23
SLAYTON        CLOUDY    30  26  85 N13G20    29.88S WCI  20
$$
MNZ065>067-074>077-082>085-091>093-231800-
   South Central Minnesota

CITY           SKY/WX    TMP DP  RH WIND       PRES   REMARKS
MANKATO          N/A     33  28  81 NE10      29.90F WCI  25
NEW ULM        PTSUNNY   32  25  74 NE12      29.90F WCI  23
ST JAMES       CLOUDY    32  28  86 N8        29.91F WCI  25
FAIRMONT       CLOUDY    33  29  85 NE14      29.87F WCI  23
GLENCOE        CLOUDY    34  29  81 NE9       29.91F WCI  26
FARIBAULT      CLOUDY    34  28  80 NE9       29.92S WCI  26
OWATONNA       CLOUDY    34  28  80 NE10      29.90S WCI  26
WASECA         CLOUDY    34  30  86 NE14      29.90F WCI  24
ALBERT LEA     CLOUDY    34  30  86 N14       29.87F WCI  24
$$
MNZ078>079-086>088-094>096-231800-
   Southeast Minnesota

CITY           SKY/WX    TMP DP  RH WIND       PRES   REMARKS
ROCHESTER      CLOUDY    35  31  85 NE15      29.87F WCI  25
RED WING       CLOUDY    37  27  65 NE8       29.91S
STANTON        CLOUDY    35  30  82 NE12      29.90F WCI  27
DODGE CENTER   CLOUDY    34  30  86 NE9       29.87F WCI  26
WINONA         CLOUDY    37  32  81 N6        29.90F
AUSTIN         CLOUDY    36  30  80 NE10      29.86F
PRESTON        CLOUDY    36  31  84 NE12      29.87S
$$
ABBREVIATIONS USED IN REMARKS
   TC - TEMPERATURES IN CELSIUS
  WCI - WIND CHILL INDEX
   HX - HEAT INDEX
  VSB - VISIBILITY
$$




USA.gov is the U.S. government's official web portal to all federal, state and local government web resources and services.